Year,Month,Day,Hour,Minute,Value (Times are PST for temperature in C)
2015,03,29,01,31,9.30
2015,03,29,01,32,9.30
2015,03,29,01,33,9.30
2015,03,29,01,34,9.30
2015,03,29,01,35,9.30
2015,03,29,01,36,9.30
2015,03,29,01,37,9.30
2015,03,29,01,38,9.30
2015,03,29,01,39,9.30
2015,03,29,01,40,9.30
2015,03,29,01,41,9.30
2015,03,29,01,42,9.30
2015,03,29,01,43,9.30
2015,03,29,01,44,9.30
2015,03,29,01,45,9.30
2015,03,29,01,46,9.30
2015,03,29,01,47,9.30
2015,03,29,01,48,9.30
2015,03,29,01,49,9.30
2015,03,29,01,50,9.30
2015,03,29,01,51,9.30
2015,03,29,01,52,9.30
2015,03,29,01,53,9.30
2015,03,29,01,54,9.30
2015,03,29,01,55,9.30
2015,03,29,01,56,9.30
2015,03,29,01,57,9.30
2015,03,29,01,58,9.30
2015,03,29,01,59,9.30
2015,03,29,02,00,9.30
2015,03,29,02,01,9.20
2015,03,29,02,02,9.20
2015,03,29,02,03,9.20
2015,03,29,02,04,9.20
2015,03,29,02,05,9.20
2015,03,29,02,06,9.20
2015,03,29,02,07,9.20
2015,03,29,02,08,9.20
2015,03,29,02,09,9.20
2015,03,29,02,10,9.20
2015,03,29,02,11,9.20
2015,03,29,02,12,9.20
2015,03,29,02,13,9.20
2015,03,29,02,14,9.20
2015,03,29,02,15,9.20
2015,03,29,02,16,9.20
2015,03,29,02,17,9.20
2015,03,29,02,18,9.20
2015,03,29,02,19,9.20
2015,03,29,02,20,9.20
2015,03,29,02,21,9.20
2015,03,29,02,22,9.20
2015,03,29,02,23,9.20
2015,03,29,02,24,9.20
2015,03,29,02,25,9.20
2015,03,29,02,26,9.20
2015,03,29,02,27,9.20
2015,03,29,02,28,9.20
2015,03,29,02,29,9.20
2015,03,29,02,30,9.20
2015,03,29,02,31,9.10
2015,03,29,02,32,9.10
2015,03,29,02,33,9.10
2015,03,29,02,34,9.10
2015,03,29,02,35,9.10
2015,03,29,02,36,9.10
2015,03,29,02,37,9.10
2015,03,29,02,38,9.10
2015,03,29,02,39,9.10
2015,03,29,02,40,9.10
2015,03,29,02,41,9.10
2015,03,29,02,42,9.10
2015,03,29,02,43,9.10
2015,03,29,02,44,9.10
2015,03,29,02,45,9.10
2015,03,29,02,46,9.10
2015,03,29,02,47,9.10
2015,03,29,02,48,9.10
2015,03,29,02,49,9.10
2015,03,29,02,50,9.10
2015,03,29,02,51,9.10
2015,03,29,02,52,9.10
2015,03,29,02,53,9.10
2015,03,29,02,54,9.10
2015,03,29,02,55,9.10
2015,03,29,02,56,9.10
2015,03,29,02,57,9.10
2015,03,29,02,58,9.10
2015,03,29,02,59,9.10
2015,03,29,03,00,9.10
2015,03,29,03,01,9.00
2015,03,29,03,02,9.00
2015,03,29,03,03,9.00
2015,03,29,03,04,9.00
2015,03,29,03,05,9.00
2015,03,29,03,06,9.00
2015,03,29,03,07,9.00
2015,03,29,03,08,9.00
2015,03,29,03,09,9.00
2015,03,29,03,10,9.00
2015,03,29,03,11,9.00
2015,03,29,03,12,9.00
2015,03,29,03,13,9.00
2015,03,29,03,14,9.00
2015,03,29,03,15,9.00
2015,03,29,03,16,9.00
2015,03,29,03,17,9.00
2015,03,29,03,18,9.00
2015,03,29,03,19,9.00
2015,03,29,03,20,9.00
2015,03,29,03,21,9.00
2015,03,29,03,22,9.00
2015,03,29,03,23,9.00
2015,03,29,03,24,9.00
2015,03,29,03,25,9.00
2015,03,29,03,26,9.00
2015,03,29,03,27,9.00
2015,03,29,03,28,9.00
2015,03,29,03,29,9.00
2015,03,29,03,30,9.00
2015,03,29,03,31,9.00
2015,03,29,03,32,9.00
2015,03,29,03,33,9.00
2015,03,29,03,34,9.00
2015,03,29,03,35,9.00
2015,03,29,03,36,9.00
2015,03,29,03,37,9.00
2015,03,29,03,38,9.00
2015,03,29,03,39,9.00
2015,03,29,03,40,9.00
2015,03,29,03,41,9.00
2015,03,29,03,42,9.00
2015,03,29,03,43,9.00
2015,03,29,03,44,9.00
2015,03,29,03,45,9.00
2015,03,29,03,46,9.00
2015,03,29,03,47,9.00
2015,03,29,03,48,9.00
2015,03,29,03,49,9.00
2015,03,29,03,50,9.00
2015,03,29,03,51,9.00
2015,03,29,03,52,9.00
2015,03,29,03,53,9.00
2015,03,29,03,54,9.00
2015,03,29,03,55,9.00
2015,03,29,03,56,9.00
2015,03,29,03,57,9.00
2015,03,29,03,58,9.00
2015,03,29,03,59,9.00
2015,03,29,04,00,9.00
2015,03,29,04,01,9.10
2015,03,29,04,02,9.10
2015,03,29,04,03,9.10
2015,03,29,04,04,9.10
2015,03,29,04,05,9.10
2015,03,29,04,06,9.10
2015,03,29,04,07,9.10
2015,03,29,04,08,9.10
2015,03,29,04,09,9.10
2015,03,29,04,10,9.10
2015,03,29,04,11,9.10
2015,03,29,04,12,9.10
2015,03,29,04,13,9.10
2015,03,29,04,14,9.10
2015,03,29,04,15,9.10
2015,03,29,04,16,9.10
2015,03,29,04,17,9.10
2015,03,29,04,18,9.10
2015,03,29,04,19,9.10
2015,03,29,04,20,9.10
2015,03,29,04,21,9.10
2015,03,29,04,22,9.10
2015,03,29,04,23,9.10
2015,03,29,04,24,9.10
2015,03,29,04,25,9.10
2015,03,29,04,26,9.10
2015,03,29,04,27,9.10
2015,03,29,04,28,9.10
2015,03,29,04,29,9.10
2015,03,29,04,30,9.10
2015,03,29,04,31,8.90
2015,03,29,04,32,8.90
2015,03,29,04,33,8.90
2015,03,29,04,34,8.90
2015,03,29,04,35,8.90
2015,03,29,04,36,8.90
2015,03,29,04,37,8.90
2015,03,29,04,38,8.90
2015,03,29,04,39,8.90
2015,03,29,04,40,8.90
2015,03,29,04,41,8.90
2015,03,29,04,42,8.90
2015,03,29,04,43,8.90
2015,03,29,04,44,8.90
2015,03,29,04,45,8.90
2015,03,29,04,46,8.90
2015,03,29,04,47,8.90
2015,03,29,04,48,8.90
2015,03,29,04,49,8.90
2015,03,29,04,50,8.90
2015,03,29,04,51,8.90
2015,03,29,04,52,8.90
2015,03,29,04,53,8.90
2015,03,29,04,54,8.90
2015,03,29,04,55,8.90
2015,03,29,04,56,8.90
2015,03,29,04,57,8.90
2015,03,29,04,58,8.90
2015,03,29,04,59,8.90
2015,03,29,05,00,8.90
2015,03,29,05,01,8.90
2015,03,29,05,02,8.90
2015,03,29,05,03,8.90
2015,03,29,05,04,8.90
2015,03,29,05,05,8.90
2015,03,29,05,06,8.90
2015,03,29,05,07,8.90
2015,03,29,05,08,8.90
2015,03,29,05,09,8.90
2015,03,29,05,10,8.90
2015,03,29,05,11,8.90
2015,03,29,05,12,8.90
2015,03,29,05,13,8.90
2015,03,29,05,14,8.90
2015,03,29,05,15,8.90
2015,03,29,05,16,8.90
2015,03,29,05,17,8.90
2015,03,29,05,18,8.90
2015,03,29,05,19,8.90
2015,03,29,05,20,8.90
2015,03,29,05,21,8.90
2015,03,29,05,22,8.90
2015,03,29,05,23,8.90
2015,03,29,05,24,8.90
2015,03,29,05,25,8.90
2015,03,29,05,26,8.90
2015,03,29,05,27,8.90
2015,03,29,05,28,8.90
2015,03,29,05,29,8.90
2015,03,29,05,30,8.90
2015,03,29,05,31,8.90
2015,03,29,05,32,8.90
2015,03,29,05,33,8.90
2015,03,29,05,34,8.90
2015,03,29,05,35,8.90
2015,03,29,05,36,8.90
2015,03,29,05,37,8.90
2015,03,29,05,38,8.90
2015,03,29,05,39,8.90
2015,03,29,05,40,8.90
2015,03,29,05,41,8.90
2015,03,29,05,42,8.90
2015,03,29,05,43,8.90
2015,03,29,05,44,8.90
2015,03,29,05,45,8.90
2015,03,29,05,46,8.90
2015,03,29,05,47,8.90
2015,03,29,05,48,8.90
2015,03,29,05,49,8.90
2015,03,29,05,50,8.90
2015,03,29,05,51,8.90
2015,03,29,05,52,8.90
2015,03,29,05,53,8.90
2015,03,29,05,54,8.90
2015,03,29,05,55,8.90
2015,03,29,05,56,8.90
2015,03,29,05,57,8.90
2015,03,29,05,58,8.90
2015,03,29,05,59,8.90
2015,03,29,06,00,8.90
2015,03,29,06,01,8.90
2015,03,29,06,02,8.90
2015,03,29,06,03,8.90
2015,03,29,06,04,8.90
2015,03,29,06,05,8.90
2015,03,29,06,06,8.90
2015,03,29,06,07,8.90
2015,03,29,06,08,8.90
2015,03,29,06,09,8.90
2015,03,29,06,10,8.90
2015,03,29,06,11,8.90
2015,03,29,06,12,8.90
2015,03,29,06,13,8.90
2015,03,29,06,14,8.90
2015,03,29,06,15,8.90
2015,03,29,06,16,8.90
2015,03,29,06,17,8.90
2015,03,29,06,18,8.90
2015,03,29,06,19,8.90
2015,03,29,06,20,8.90
2015,03,29,06,21,8.90
2015,03,29,06,22,8.90
2015,03,29,06,23,8.90
2015,03,29,06,24,8.90
2015,03,29,06,25,8.90
2015,03,29,06,26,8.90
2015,03,29,06,27,8.90
2015,03,29,06,28,8.90
2015,03,29,06,29,8.90
2015,03,29,06,30,8.90
2015,03,29,06,31,8.90
2015,03,29,06,32,8.90
2015,03,29,06,33,8.90
2015,03,29,06,34,8.90
2015,03,29,06,35,8.90
2015,03,29,06,36,8.90
2015,03,29,06,37,8.90
2015,03,29,06,38,8.90
2015,03,29,06,39,8.90
2015,03,29,06,40,8.90
2015,03,29,06,41,8.90
2015,03,29,06,42,8.90
2015,03,29,06,43,8.90
2015,03,29,06,44,8.90
2015,03,29,06,45,8.90
2015,03,29,06,46,8.90
2015,03,29,06,47,8.90
2015,03,29,06,48,8.90
2015,03,29,06,49,8.90
2015,03,29,06,50,8.90
2015,03,29,06,51,8.90
2015,03,29,06,52,8.90
2015,03,29,06,53,8.90
2015,03,29,06,54,8.90
2015,03,29,06,55,8.90
2015,03,29,06,56,8.90
2015,03,29,06,57,8.90
2015,03,29,06,58,8.90
2015,03,29,06,59,8.90
2015,03,29,07,00,8.90
2015,03,29,07,01,9.00
2015,03,29,07,02,9.00
2015,03,29,07,03,9.00
2015,03,29,07,04,9.00
2015,03,29,07,05,9.00
2015,03,29,07,06,9.00
2015,03,29,07,07,9.00
2015,03,29,07,08,9.00
2015,03,29,07,09,9.00
2015,03,29,07,10,9.00
2015,03,29,07,11,9.00
2015,03,29,07,12,9.00
2015,03,29,07,13,9.00
2015,03,29,07,14,9.00
2015,03,29,07,15,9.00
2015,03,29,07,16,9.00
2015,03,29,07,17,9.00
2015,03,29,07,18,9.00
2015,03,29,07,19,9.00
2015,03,29,07,20,9.00
2015,03,29,07,21,9.00
2015,03,29,07,22,9.00
2015,03,29,07,23,9.00
2015,03,29,07,24,9.00
2015,03,29,07,25,9.00
2015,03,29,07,26,9.00
2015,03,29,07,27,9.00
2015,03,29,07,28,9.00
2015,03,29,07,29,9.00
2015,03,29,07,30,9.00
2015,03,29,07,31,8.90
2015,03,29,07,32,8.90
2015,03,29,07,33,8.90
2015,03,29,07,34,8.90
2015,03,29,07,35,8.90
2015,03,29,07,36,8.90
2015,03,29,07,37,8.90
2015,03,29,07,38,8.90
2015,03,29,07,39,8.90
2015,03,29,07,40,8.90
2015,03,29,07,41,8.90
2015,03,29,07,42,8.90
2015,03,29,07,43,8.90
2015,03,29,07,44,8.90
2015,03,29,07,45,8.90
2015,03,29,07,46,8.90
2015,03,29,07,47,8.90
2015,03,29,07,48,8.90
2015,03,29,07,49,8.90
2015,03,29,07,50,8.90
2015,03,29,07,51,8.90
2015,03,29,07,52,8.90
2015,03,29,07,53,8.90
2015,03,29,07,54,8.90
2015,03,29,07,55,8.90
2015,03,29,07,56,8.90
2015,03,29,07,57,8.90
2015,03,29,07,58,8.90
2015,03,29,07,59,8.90
2015,03,29,08,00,8.90
2015,03,29,08,01,8.90
2015,03,29,08,02,8.90
2015,03,29,08,03,8.90
2015,03,29,08,04,8.90
2015,03,29,08,05,8.90
2015,03,29,08,06,8.90
2015,03,29,08,07,8.90
2015,03,29,08,08,8.90
2015,03,29,08,09,8.90
2015,03,29,08,10,8.90
2015,03,29,08,11,8.90
2015,03,29,08,12,8.90
2015,03,29,08,13,8.90
2015,03,29,08,14,8.90
2015,03,29,08,15,8.90
2015,03,29,08,16,8.90
2015,03,29,08,17,8.90
2015,03,29,08,18,8.90
2015,03,29,08,19,8.90
2015,03,29,08,20,8.90
2015,03,29,08,21,8.90
2015,03,29,08,22,8.90
2015,03,29,08,23,8.90
2015,03,29,08,24,8.90
2015,03,29,08,25,8.90
2015,03,29,08,26,8.90
2015,03,29,08,27,8.90
2015,03,29,08,28,8.90
2015,03,29,08,29,8.90
2015,03,29,08,30,8.90
2015,03,29,08,31,8.90
2015,03,29,08,32,8.90
2015,03,29,08,33,8.90
2015,03,29,08,34,8.90
2015,03,29,08,35,8.90
2015,03,29,08,36,8.90
2015,03,29,08,37,8.90
2015,03,29,08,38,8.90
2015,03,29,08,39,8.90
2015,03,29,08,40,8.90
2015,03,29,08,41,8.90
2015,03,29,08,42,8.90
2015,03,29,08,43,8.90
2015,03,29,08,44,8.90
2015,03,29,08,45,8.90
2015,03,29,08,46,8.90
2015,03,29,08,47,8.90
2015,03,29,08,48,8.90
2015,03,29,08,49,8.90
2015,03,29,08,50,8.90
2015,03,29,08,51,8.90
2015,03,29,08,52,8.90
2015,03,29,08,53,8.90
2015,03,29,08,54,8.90
2015,03,29,08,55,8.90
2015,03,29,08,56,8.90
2015,03,29,08,57,8.90
2015,03,29,08,58,8.90
2015,03,29,08,59,8.90
2015,03,29,09,00,8.90
2015,03,29,09,01,9.00
2015,03,29,09,02,9.00
2015,03,29,09,03,9.00
2015,03,29,09,04,9.00
2015,03,29,09,05,9.00
2015,03,29,09,06,9.00
2015,03,29,09,07,9.00
2015,03,29,09,08,9.00
2015,03,29,09,09,9.00
2015,03,29,09,10,9.00
2015,03,29,09,11,9.00
2015,03,29,09,12,9.00
2015,03,29,09,13,9.00
2015,03,29,09,14,9.00
2015,03,29,09,15,9.00
2015,03,29,09,16,9.00
2015,03,29,09,17,9.00
2015,03,29,09,18,9.00
2015,03,29,09,19,9.00
2015,03,29,09,20,9.00
2015,03,29,09,21,9.00
2015,03,29,09,22,9.00
2015,03,29,09,23,9.00
2015,03,29,09,24,9.00
2015,03,29,09,25,9.00
2015,03,29,09,26,9.00
2015,03,29,09,27,9.00
2015,03,29,09,28,9.00
2015,03,29,09,29,9.00
2015,03,29,09,30,9.00
2015,03,29,09,31,9.20
2015,03,29,09,32,9.20
2015,03,29,09,33,9.20
2015,03,29,09,34,9.20
2015,03,29,09,35,9.20
2015,03,29,09,36,9.20
2015,03,29,09,37,9.20
2015,03,29,09,38,9.20
2015,03,29,09,39,9.20
2015,03,29,09,40,9.20
2015,03,29,09,41,9.20
2015,03,29,09,42,9.20
2015,03,29,09,43,9.20
2015,03,29,09,44,9.20
2015,03,29,09,45,9.20
2015,03,29,09,46,9.20
2015,03,29,09,47,9.20
2015,03,29,09,48,9.20
2015,03,29,09,49,9.20
2015,03,29,09,50,9.20
2015,03,29,09,51,9.20
2015,03,29,09,52,9.20
2015,03,29,09,53,9.20
2015,03,29,09,54,9.20
2015,03,29,09,55,9.20
2015,03,29,09,56,9.20
2015,03,29,09,57,9.20
2015,03,29,09,58,9.20
2015,03,29,09,59,9.20
2015,03,29,10,00,9.20
2015,03,29,10,01,9.20
2015,03,29,10,02,9.20
2015,03,29,10,03,9.20
2015,03,29,10,04,9.20
2015,03,29,10,05,9.20
2015,03,29,10,06,9.20
2015,03,29,10,07,9.20
2015,03,29,10,08,9.20
2015,03,29,10,09,9.20
2015,03,29,10,10,9.20
2015,03,29,10,11,9.20
2015,03,29,10,12,9.20
2015,03,29,10,13,9.20
2015,03,29,10,14,9.20
2015,03,29,10,15,9.20
2015,03,29,10,16,9.20
2015,03,29,10,17,9.20
2015,03,29,10,18,9.20
2015,03,29,10,19,9.20
2015,03,29,10,20,9.20
2015,03,29,10,21,9.20
2015,03,29,10,22,9.20
2015,03,29,10,23,9.20
2015,03,29,10,24,9.20
2015,03,29,10,25,9.20
2015,03,29,10,26,9.20
2015,03,29,10,27,9.20
2015,03,29,10,28,9.20
2015,03,29,10,29,9.20
2015,03,29,10,30,9.20
2015,03,29,10,31,9.20
2015,03,29,10,32,9.20
2015,03,29,10,33,9.20
2015,03,29,10,34,9.20
2015,03,29,10,35,9.20
2015,03,29,10,36,9.20
2015,03,29,10,37,9.20
2015,03,29,10,38,9.20
2015,03,29,10,39,9.20
2015,03,29,10,40,9.20
2015,03,29,10,41,9.20
2015,03,29,10,42,9.20
2015,03,29,10,43,9.20
2015,03,29,10,44,9.20
2015,03,29,10,45,9.20
2015,03,29,10,46,9.20
2015,03,29,10,47,9.20
2015,03,29,10,48,9.20
2015,03,29,10,49,9.20
2015,03,29,10,50,9.20
2015,03,29,10,51,9.20
2015,03,29,10,52,9.20
2015,03,29,10,53,9.20
2015,03,29,10,54,9.20
2015,03,29,10,55,9.20
2015,03,29,10,56,9.20
2015,03,29,10,57,9.20
2015,03,29,10,58,9.20
2015,03,29,10,59,9.20
2015,03,29,11,00,9.20
2015,03,29,11,01,9.50
2015,03,29,11,02,9.50
2015,03,29,11,03,9.50
2015,03,29,11,04,9.50
2015,03,29,11,05,9.50
2015,03,29,11,06,9.50
2015,03,29,11,07,9.50
2015,03,29,11,08,9.50
2015,03,29,11,09,9.50
2015,03,29,11,10,9.50
2015,03,29,11,11,9.50
2015,03,29,11,12,9.50
2015,03,29,11,13,9.50
2015,03,29,11,14,9.50
2015,03,29,11,15,9.50
2015,03,29,11,16,9.50
2015,03,29,11,17,9.50
2015,03,29,11,18,9.50
2015,03,29,11,19,9.50
2015,03,29,11,20,9.50
2015,03,29,11,21,9.50
2015,03,29,11,22,9.50
2015,03,29,11,23,9.50
2015,03,29,11,24,9.50
2015,03,29,11,25,9.50
2015,03,29,11,26,9.50
2015,03,29,11,27,9.50
2015,03,29,11,28,9.50
2015,03,29,11,29,9.50
2015,03,29,11,30,9.50
2015,03,29,11,31,9.50
2015,03,29,11,32,9.50
2015,03,29,11,33,9.50
2015,03,29,11,34,9.50
2015,03,29,11,35,9.50
2015,03,29,11,36,9.50
2015,03,29,11,37,9.50
2015,03,29,11,38,9.50
2015,03,29,11,39,9.50
2015,03,29,11,40,9.50
2015,03,29,11,41,9.50
2015,03,29,11,42,9.50
2015,03,29,11,43,9.50
2015,03,29,11,44,9.50
2015,03,29,11,45,9.50
2015,03,29,11,46,9.50
2015,03,29,11,47,9.50
2015,03,29,11,48,9.50
2015,03,29,11,49,9.50
2015,03,29,11,50,9.50
2015,03,29,11,51,9.50
2015,03,29,11,52,9.50
2015,03,29,11,53,9.50
2015,03,29,11,54,9.50
2015,03,29,11,55,9.50
2015,03,29,11,56,9.50
2015,03,29,11,57,9.50
2015,03,29,11,58,9.50
2015,03,29,11,59,9.50
2015,03,29,12,00,9.50
2015,03,29,12,01,9.80
2015,03,29,12,02,9.80
2015,03,29,12,03,9.80
2015,03,29,12,04,9.80
2015,03,29,12,05,9.80
2015,03,29,12,06,9.80
2015,03,29,12,07,9.80
2015,03,29,12,08,9.80
2015,03,29,12,09,9.80
2015,03,29,12,10,9.80
2015,03,29,12,11,9.80
2015,03,29,12,12,9.80
2015,03,29,12,13,9.80
2015,03,29,12,14,9.80
2015,03,29,12,15,9.80
2015,03,29,12,16,9.80
2015,03,29,12,17,9.80
2015,03,29,12,18,9.80
2015,03,29,12,19,9.80
2015,03,29,12,20,9.80
2015,03,29,12,21,9.80
2015,03,29,12,22,9.80
2015,03,29,12,23,9.80
2015,03,29,12,24,9.80
2015,03,29,12,25,9.80
2015,03,29,12,26,9.80
2015,03,29,12,27,9.80
2015,03,29,12,28,9.80
2015,03,29,12,29,9.80
2015,03,29,12,30,9.80
2015,03,29,12,31,9.90
2015,03,29,12,32,9.90
2015,03,29,12,33,9.90
2015,03,29,12,34,9.90
2015,03,29,12,35,9.90
2015,03,29,12,36,9.90
2015,03,29,12,37,9.90
2015,03,29,12,38,9.90
2015,03,29,12,39,9.90
2015,03,29,12,40,9.90
2015,03,29,12,41,9.90
2015,03,29,12,42,9.90
2015,03,29,12,43,9.90
2015,03,29,12,44,9.90
2015,03,29,12,45,9.90
2015,03,29,12,46,9.90
2015,03,29,12,47,9.90
2015,03,29,12,48,9.90
2015,03,29,12,49,9.90
2015,03,29,12,50,9.90
2015,03,29,12,51,9.90
2015,03,29,12,52,9.90
2015,03,29,12,53,9.90
2015,03,29,12,54,9.90
2015,03,29,12,55,9.90
2015,03,29,12,56,9.90
2015,03,29,12,57,9.90
2015,03,29,12,58,9.90
2015,03,29,12,59,9.90
2015,03,29,13,00,9.90
2015,03,29,13,01,10.30
2015,03,29,13,02,10.30
2015,03,29,13,03,10.30
2015,03,29,13,04,10.30
2015,03,29,13,05,10.30
2015,03,29,13,06,10.30
2015,03,29,13,07,10.30
2015,03,29,13,08,10.30
2015,03,29,13,09,10.30
2015,03,29,13,10,10.30
2015,03,29,13,11,10.30
2015,03,29,13,12,10.30
2015,03,29,13,13,10.30
2015,03,29,13,14,10.30
2015,03,29,13,15,10.30
2015,03,29,13,16,10.30
2015,03,29,13,17,10.30
2015,03,29,13,18,10.30
2015,03,29,13,19,10.30
2015,03,29,13,20,10.30
2015,03,29,13,21,10.30
2015,03,29,13,22,10.30
2015,03,29,13,23,10.30
2015,03,29,13,24,10.30
2015,03,29,13,25,10.30
2015,03,29,13,26,10.30
2015,03,29,13,27,10.30
2015,03,29,13,28,10.30
2015,03,29,13,29,10.30
2015,03,29,13,30,10.30
2015,03,29,13,31,10.20
2015,03,29,13,32,10.20
2015,03,29,13,33,10.20
2015,03,29,13,34,10.20
2015,03,29,13,35,10.20
2015,03,29,13,36,10.20
2015,03,29,13,37,10.20
2015,03,29,13,38,10.20
2015,03,29,13,39,10.20
2015,03,29,13,40,10.20
2015,03,29,13,41,10.20
2015,03,29,13,42,10.20
2015,03,29,13,43,10.20
2015,03,29,13,44,10.20
2015,03,29,13,45,10.20
2015,03,29,13,46,10.20
2015,03,29,13,47,10.20
2015,03,29,13,48,10.20
2015,03,29,13,49,10.20
2015,03,29,13,50,10.20
2015,03,29,13,51,10.20
2015,03,29,13,52,10.20
2015,03,29,13,53,10.20
2015,03,29,13,54,10.20
2015,03,29,13,55,10.20
2015,03,29,13,56,10.20
2015,03,29,13,57,10.20
2015,03,29,13,58,10.20
2015,03,29,13,59,10.20
2015,03,29,14,00,10.20
2015,03,29,14,01,10.30
2015,03,29,14,02,10.30
2015,03,29,14,03,10.30
2015,03,29,14,04,10.30
2015,03,29,14,05,10.30
2015,03,29,14,06,10.30
2015,03,29,14,07,10.30
2015,03,29,14,08,10.30
2015,03,29,14,09,10.30
2015,03,29,14,10,10.30
2015,03,29,14,11,10.30
2015,03,29,14,12,10.30
2015,03,29,14,13,10.30
2015,03,29,14,14,10.30
2015,03,29,14,15,10.30
2015,03,29,14,16,10.30
2015,03,29,14,17,10.30
2015,03,29,14,18,10.30
2015,03,29,14,19,10.30
2015,03,29,14,20,10.30
2015,03,29,14,21,10.30
2015,03,29,14,22,10.30
2015,03,29,14,23,10.30
2015,03,29,14,24,10.30
2015,03,29,14,25,10.30
2015,03,29,14,26,10.30
2015,03,29,14,27,10.30
2015,03,29,14,28,10.30
2015,03,29,14,29,10.30
2015,03,29,14,30,10.30
2015,03,29,14,31,10.50
2015,03,29,14,32,10.50
2015,03,29,14,33,10.50
2015,03,29,14,34,10.50
2015,03,29,14,35,10.50
2015,03,29,14,36,10.50
2015,03,29,14,37,10.50
2015,03,29,14,38,10.50
2015,03,29,14,39,10.50
2015,03,29,14,40,10.50
2015,03,29,14,41,10.50
2015,03,29,14,42,10.50
2015,03,29,14,43,10.50
2015,03,29,14,44,10.50
2015,03,29,14,45,10.50
2015,03,29,14,46,10.50
2015,03,29,14,47,10.50
2015,03,29,14,48,10.50
2015,03,29,14,49,10.50
2015,03,29,14,50,10.50
2015,03,29,14,51,10.50
2015,03,29,14,52,10.50
2015,03,29,14,55,10.50
2015,03,29,14,57,10.50
2015,03,29,14,58,10.50
2015,03,29,14,59,10.50
2015,03,29,15,00,10.50
2015,03,29,15,01,10.70
2015,03,29,15,02,10.70
2015,03,29,15,03,10.70
2015,03,29,15,04,10.70
2015,03,29,15,05,10.70
2015,03,29,15,06,10.70
2015,03,29,15,07,10.70
2015,03,29,15,08,10.70
2015,03,29,15,09,10.70
2015,03,29,15,10,10.70
2015,03,29,15,11,10.70
2015,03,29,15,12,10.70
2015,03,29,15,13,10.70
2015,03,29,15,14,10.70
2015,03,29,15,15,10.70
2015,03,29,15,16,10.70
2015,03,29,15,17,10.70
2015,03,29,15,18,10.70
2015,03,29,15,19,10.70
2015,03,29,15,20,10.70
2015,03,29,15,21,10.70
2015,03,29,15,22,10.70
2015,03,29,15,23,10.70
2015,03,29,15,24,10.70
2015,03,29,15,25,10.70
2015,03,29,15,26,10.70
2015,03,29,15,27,10.70
2015,03,29,15,28,10.70
2015,03,29,15,29,10.70
2015,03,29,15,30,10.70
2015,03,29,15,31,10.70
2015,03,29,15,32,10.70
2015,03,29,15,33,10.70
2015,03,29,15,34,10.70
2015,03,29,15,35,10.70
2015,03,29,15,36,10.70
2015,03,29,15,37,10.70
2015,03,29,15,38,10.70
2015,03,29,15,39,10.70
2015,03,29,15,40,10.70
2015,03,29,15,41,10.70
2015,03,29,15,42,10.70
2015,03,29,15,43,10.70
2015,03,29,15,44,10.70
2015,03,29,15,45,10.70
2015,03,29,15,46,10.70
2015,03,29,15,47,10.70
2015,03,29,15,48,10.70
2015,03,29,15,49,10.70
2015,03,29,15,50,10.70
2015,03,29,15,51,10.70
2015,03,29,15,52,10.70
2015,03,29,15,53,10.70
2015,03,29,15,54,10.70
2015,03,29,15,55,10.70
2015,03,29,15,56,10.70
2015,03,29,15,57,10.70
2015,03,29,15,58,10.70
2015,03,29,15,59,10.70
2015,03,29,16,00,10.70
2015,03,29,16,01,10.90
2015,03,29,16,02,10.90
2015,03,29,16,03,10.90
2015,03,29,16,04,10.90
2015,03,29,16,05,10.90
2015,03,29,16,06,10.90
2015,03,29,16,07,10.90
2015,03,29,16,08,10.90
2015,03,29,16,09,10.90
2015,03,29,16,10,10.90
2015,03,29,16,11,10.90
2015,03,29,16,12,10.90
2015,03,29,16,13,10.90
2015,03,29,16,14,10.90
2015,03,29,16,15,10.90
2015,03,29,16,16,10.90
2015,03,29,16,17,10.90
2015,03,29,16,18,10.90
2015,03,29,16,19,10.90
2015,03,29,16,20,10.90
2015,03,29,16,21,10.90
2015,03,29,16,22,10.90
2015,03,29,16,23,10.90
2015,03,29,16,24,10.90
2015,03,29,16,25,10.90
2015,03,29,16,26,10.90
2015,03,29,16,27,10.90
2015,03,29,16,28,10.90
2015,03,29,16,29,10.90
2015,03,29,16,30,10.90
2015,03,29,16,31,10.70
2015,03,29,16,32,10.70
2015,03,29,16,33,10.70
2015,03,29,16,34,10.70
2015,03,29,16,35,10.70
2015,03,29,16,36,10.70
2015,03,29,16,37,10.70
2015,03,29,16,38,10.70
2015,03,29,16,39,10.70
2015,03,29,16,40,10.70
2015,03,29,16,41,10.70
2015,03,29,16,42,10.70
2015,03,29,16,43,10.70
2015,03,29,16,44,10.70
2015,03,29,16,45,10.70
2015,03,29,16,46,10.70
2015,03,29,16,47,10.70
2015,03,29,16,48,10.70
2015,03,29,16,49,10.70
2015,03,29,16,50,10.70
2015,03,29,16,51,10.70
2015,03,29,16,52,10.70
2015,03,29,16,53,10.70
2015,03,29,16,54,10.70
2015,03,29,16,55,10.70
2015,03,29,16,56,10.70
2015,03,29,16,57,10.70
2015,03,29,16,58,10.70
2015,03,29,16,59,10.70
2015,03,29,17,00,10.70
2015,03,29,17,01,10.80
2015,03,29,17,02,10.80
2015,03,29,17,03,10.80
2015,03,29,17,04,10.80
2015,03,29,17,05,10.80
2015,03,29,17,06,10.80
2015,03,29,17,07,10.80
2015,03,29,17,08,10.80
2015,03,29,17,09,10.80
2015,03,29,17,10,10.80
2015,03,29,17,11,10.80
2015,03,29,17,12,10.80
2015,03,29,17,13,10.80
2015,03,29,17,14,10.80
2015,03,29,17,15,10.80
2015,03,29,17,16,10.80
2015,03,29,17,17,10.80
2015,03,29,17,18,10.80
2015,03,29,17,19,10.80
2015,03,29,17,20,10.80
2015,03,29,17,21,10.80
2015,03,29,17,22,10.80
2015,03,29,17,23,10.80
2015,03,29,17,24,10.80
2015,03,29,17,25,10.80
2015,03,29,17,26,10.80
2015,03,29,17,27,10.80
2015,03,29,17,28,10.80
2015,03,29,17,29,10.80
2015,03,29,17,30,10.80
2015,03,29,17,31,10.70
2015,03,29,17,32,10.70
2015,03,29,17,33,10.70
2015,03,29,17,34,10.70
2015,03,29,17,35,10.70
2015,03,29,17,36,10.70
2015,03,29,17,37,10.70
2015,03,29,17,38,10.70
2015,03,29,17,39,10.70
2015,03,29,17,40,10.70
2015,03,29,17,41,10.70
2015,03,29,17,42,10.70
2015,03,29,17,43,10.70
2015,03,29,17,44,10.70
2015,03,29,17,45,10.70
2015,03,29,17,46,10.70
2015,03,29,17,47,10.70
2015,03,29,17,48,10.70
2015,03,29,17,49,10.70
2015,03,29,17,50,10.70
2015,03,29,17,51,10.70
2015,03,29,17,52,10.70
2015,03,29,17,53,10.70
2015,03,29,17,54,10.70
2015,03,29,17,55,10.70
2015,03,29,17,56,10.70
2015,03,29,17,57,10.70
2015,03,29,17,58,10.70
2015,03,29,17,59,10.70
2015,03,29,18,00,10.70
2015,03,29,18,01,10.70
2015,03,29,18,02,10.70
2015,03,29,18,03,10.70
2015,03,29,18,04,10.70
2015,03,29,18,05,10.70
2015,03,29,18,06,10.70
2015,03,29,18,07,10.70
2015,03,29,18,08,10.70
2015,03,29,18,09,10.70
2015,03,29,18,10,10.70
2015,03,29,18,11,10.70
2015,03,29,18,12,10.70
2015,03,29,18,13,10.70
2015,03,29,18,14,10.70
2015,03,29,18,15,10.70
2015,03,29,18,16,10.70
2015,03,29,18,17,10.70
2015,03,29,18,18,10.70
2015,03,29,18,19,10.70
2015,03,29,18,20,10.70
2015,03,29,18,21,10.70
2015,03,29,18,22,10.70
2015,03,29,18,23,10.70
2015,03,29,18,24,10.70
2015,03,29,18,25,10.70
2015,03,29,18,26,10.70
2015,03,29,18,27,10.70
2015,03,29,18,28,10.70
2015,03,29,18,29,10.70
2015,03,29,18,30,10.70
2015,03,29,18,31,10.60
2015,03,29,18,32,10.60
2015,03,29,18,33,10.60
2015,03,29,18,34,10.60
2015,03,29,18,35,10.60
2015,03,29,18,36,10.60
2015,03,29,18,37,10.60
2015,03,29,18,38,10.60
2015,03,29,18,39,10.60
2015,03,29,18,40,10.60
2015,03,29,18,41,10.60
2015,03,29,18,42,10.60
2015,03,29,18,43,10.60
2015,03,29,18,44,10.60
2015,03,29,18,45,10.60
2015,03,29,18,46,10.60
2015,03,29,18,47,10.60
2015,03,29,18,48,10.60
2015,03,29,18,49,10.60
2015,03,29,18,50,10.60
2015,03,29,18,51,10.60
2015,03,29,18,52,10.60
2015,03,29,18,53,10.60
2015,03,29,18,54,10.60
2015,03,29,18,55,10.60
2015,03,29,18,56,10.60
2015,03,29,18,57,10.60
2015,03,29,18,58,10.60
2015,03,29,18,59,10.60
2015,03,29,19,00,10.60
2015,03,29,19,01,10.30
2015,03,29,19,02,10.30
2015,03,29,19,03,10.30
2015,03,29,19,04,10.30
2015,03,29,19,05,10.30
2015,03,29,19,06,10.30
2015,03,29,19,07,10.30
2015,03,29,19,08,10.30
2015,03,29,19,09,10.30
2015,03,29,19,10,10.30
2015,03,29,19,11,10.30
2015,03,29,19,12,10.30
2015,03,29,19,13,10.30
2015,03,29,19,14,10.30
2015,03,29,19,15,10.30
2015,03,29,19,16,10.30
2015,03,29,19,17,10.30
2015,03,29,19,18,10.30
2015,03,29,19,19,10.30
2015,03,29,19,20,10.30
2015,03,29,19,21,10.30
2015,03,29,19,22,10.30
2015,03,29,19,23,10.30